Date String (YYYY-MM-DD hh:mm:ss) UTC,Instrument flags,Ambient pressure (hPa),Sample flow (lpm),Bypass flow (lpm),Sample temperature (°C),Ambient temperature (°C),ASC tube jacket temperature (°C),LED temperature (°C),Box temperature (°C),Sample RH (%),Span deviation,Mass concentration (μg/m³),Mass concentration (μg/m³),Mass concentration (μg/m³)
DateTimeUTC,F1_M11,P_M11,Q1_M11,Q2_M11,T1_M11,T2_M11,T3_M11,T4_M11,T5_M11,U1_M11,ZSPAN_M11,X2_M11,X0_M11,X1_M11
2022-11-16 13:00:00,,0834.1,5.00,0.00,22.1,21.5,00.0,31.0,24.0,06.8,0000.0,0001.06,0001.39,0000.93
2022-11-16 13:01:00,,0834.1,5.00,0.00,22.1,21.2,00.0,31.0,24.0,06.8,0000.0,0001.06,0001.41,0000.94
2022-11-16 13:02:00,,0834.1,5.00,0.00,22.1,21.0,00.0,31.0,23.9,06.7,0000.0,0001.06,0001.40,0000.94
2022-11-16 13:03:00,,0834.1,5.00,0.00,22.1,20.8,00.0,31.0,23.8,06.8,0000.0,0001.10,0001.49,0000.94
2022-11-16 13:04:00,,0834.1,5.00,0.00,22.0,20.6,00.0,31.0,23.8,06.8,0000.0,0001.10,0001.50,0000.94
2022-11-16 13:05:00,,0834.1,5.01,0.00,22.0,20.5,00.0,31.0,23.7,06.8,0000.0,0001.09,0001.47,0000.95
2022-11-16 13:06:00,,0834.1,5.00,0.00,22.0,20.5,00.0,31.0,23.7,06.8,0000.0,0001.07,0001.59,0000.95
2022-11-16 13:07:00,,0834.1,5.00,0.00,22.0,20.4,00.0,31.0,23.7,06.8,0000.0,0001.07,0002.33,0000.96
2022-11-16 13:08:00,,0834.1,5.00,0.00,21.9,20.4,00.0,30.9,23.7,06.8,0000.0,0001.08,0002.34,0000.96
2022-11-16 13:09:00,,0834.2,5.00,0.00,21.9,20.4,00.0,30.9,23.6,06.8,0000.0,0001.09,0002.36,0000.97
2022-11-16 13:10:00,,0834.2,5.00,0.00,22.0,21.1,00.0,30.9,23.8,06.8,0000.0,0001.09,0002.36,0000.97
2022-11-16 13:11:00,,0834.3,4.99,0.00,22.1,22.0,00.0,30.8,24.0,06.8,0000.0,0001.07,0002.32,0000.96
2022-11-16 13:12:00,,0834.3,4.98,0.00,22.1,22.0,00.0,30.9,24.1,06.8,0000.0,0001.08,0002.38,0000.96
2022-11-16 13:13:00,,0834.2,5.00,0.00,22.1,21.6,00.0,30.9,24.1,06.8,0000.0,0001.11,0002.50,0000.96
2022-11-16 13:14:00,,0834.2,5.00,0.00,22.1,21.3,00.0,31.0,24.0,06.8,0000.0,0001.09,0002.46,0000.97
2022-11-16 13:15:00,,0834.2,4.99,0.00,22.1,21.0,00.0,31.0,23.9,06.8,0000.0,0001.11,0002.51,0000.97
2022-11-16 13:16:00,,0834.3,5.00,0.00,22.1,20.8,00.0,31.0,23.8,06.8,0000.0,0001.12,0002.55,0000.98
2022-11-16 13:17:00,,0834.3,5.00,0.00,22.0,20.7,00.0,31.0,23.8,06.8,0000.0,0001.13,0002.32,0000.98
2022-11-16 13:18:00,,0834.3,5.00,0.00,22.0,20.6,00.0,31.0,23.8,06.7,0000.0,0001.12,0001.63,0000.99
2022-11-16 13:19:00,,0834.3,5.00,0.00,22.0,20.5,00.0,31.0,23.8,06.8,0000.0,0001.12,0001.62,0000.99
2022-11-16 13:20:00,,0834.3,5.00,0.00,22.0,20.4,00.0,31.0,23.7,06.8,0000.0,0001.14,0001.68,0000.99
2022-11-16 13:21:00,,0834.2,5.00,0.00,21.9,20.4,00.0,30.9,23.6,06.8,0000.0,0001.15,0001.72,0000.99
2022-11-16 13:22:00,,0834.3,5.00,0.00,21.9,20.3,00.0,30.9,23.6,06.9,0000.0,0001.15,0001.73,0000.99
2022-11-16 13:23:00,,0834.3,5.00,0.00,21.9,20.4,00.0,30.9,23.6,06.8,0000.0,0001.13,0001.64,0000.99
2022-11-16 13:24:00,,0834.3,5.01,0.00,21.9,21.2,00.0,30.8,23.8,06.7,0000.0,0001.11,0001.54,0000.99
2022-11-16 13:25:00,,0834.3,5.00,0.00,22.0,22.1,00.0,30.8,24.0,06.8,0000.0,0001.12,0001.56,0000.99
2022-11-16 13:26:00,,0834.3,5.00,0.00,22.1,21.9,00.0,30.9,24.0,06.7,0000.0,0001.10,0001.51,0000.98
2022-11-16 13:27:00,,0834.3,4.98,0.00,22.1,21.6,00.0,30.9,24.0,06.7,0000.0,0001.09,0001.50,0000.98
2022-11-16 13:28:00,,0834.2,5.01,0.00,22.1,21.3,00.0,30.9,23.9,06.8,0000.0,0001.09,0001.49,0000.98
2022-11-16 13:29:00,,0834.3,5.01,0.00,22.1,21.0,00.0,31.0,23.9,06.8,0000.0,0001.09,0001.49,0000.98
2022-11-16 13:30:00,,0834.3,5.01,0.00,22.0,20.8,00.0,31.0,23.8,06.8,0000.0,0001.08,0001.48,0000.97
2022-11-16 13:31:00,,0834.3,5.00,0.00,22.0,20.7,00.0,31.0,23.8,06.8,0000.0,0001.05,0001.40,0000.97
2022-11-16 13:32:00,,0834.3,5.00,0.00,22.0,20.6,00.0,30.9,23.7,06.9,0000.0,0001.04,0001.36,0000.98
2022-11-16 13:33:00,,0834.3,5.00,0.00,21.9,20.5,00.0,30.9,23.7,06.8,0000.0,0001.09,0001.46,0000.99
2022-11-16 13:34:00,,0834.3,4.99,0.00,21.9,20.4,00.0,30.9,23.6,06.9,0000.0,0001.11,0001.50,0001.00
2022-11-16 13:35:00,,0834.3,4.99,0.00,21.9,20.4,00.0,30.9,23.6,07.0,0000.0,0001.13,0001.54,0001.01
2022-11-16 13:36:00,,0834.3,5.00,0.00,21.9,20.6,00.0,30.9,23.6,06.9,0000.0,0001.12,0001.46,0001.02
2022-11-16 13:37:00,,0834.3,5.02,0.00,22.0,21.5,00.0,30.8,23.9,06.8,0000.0,0001.15,0001.51,0001.03
2022-11-16 13:38:00,,0834.3,5.00,0.00,22.1,22.2,00.0,30.8,24.1,06.8,0000.0,0001.16,0001.53,0001.03
2022-11-16 13:39:00,,0834.3,4.99,0.00,22.1,22.0,00.0,30.9,24.1,06.8,0000.0,0001.19,0001.58,0001.05
2022-11-16 13:40:00,,0834.3,5.00,0.00,22.1,21.6,00.0,30.9,24.0,06.8,0000.0,0001.21,0001.62,0001.07
2022-11-16 13:41:00,,0834.3,5.01,0.00,22.1,21.2,00.0,31.0,23.9,06.8,0000.0,0001.22,0001.60,0001.08
2022-11-16 13:42:00,,0834.3,4.99,0.00,22.1,21.0,00.0,31.0,23.9,06.8,0000.0,0001.25,0001.63,0001.10
2022-11-16 13:43:00,,0834.3,4.99,0.00,22.0,20.8,00.0,31.0,23.8,06.9,0000.0,0001.28,0001.68,0001.11
2022-11-16 13:44:00,,0834.3,5.01,0.00,22.0,20.7,00.0,31.0,23.8,06.9,0000.0,0001.28,0001.68,0001.12
2022-11-16 13:45:00,,0834.3,5.02,0.00,22.0,20.6,00.0,31.0,23.8,06.9,0000.0,0001.26,0001.62,0001.12
2022-11-16 13:46:00,,0834.3,5.00,0.00,22.0,20.5,00.0,31.0,23.7,06.8,0000.0,0001.24,0001.60,0001.12
2022-11-16 13:47:00,,0834.2,4.99,0.00,21.9,20.4,00.0,30.9,23.7,06.8,0000.0,0001.24,0001.61,0001.11
2022-11-16 13:48:00,,0834.3,4.99,0.00,21.9,20.3,00.0,30.9,23.6,06.9,0000.0,0001.23,0001.57,0001.11
2022-11-16 13:49:00,,0834.3,5.02,0.00,21.9,20.3,00.0,30.9,23.6,06.9,0000.0,0001.24,0001.60,0001.12
2022-11-16 13:50:00,,0834.3,5.00,0.00,21.9,21.1,00.0,30.8,23.8,07.0,0000.0,0001.25,0001.61,0001.13
2022-11-16 13:51:00,,0834.3,4.98,0.00,22.0,22.1,00.0,30.8,24.0,06.9,0000.0,0001.26,0001.67,0001.14
2022-11-16 13:52:00,,0834.3,4.99,0.00,22.1,22.0,00.0,30.9,24.1,07.0,0000.0,0001.29,0001.80,0001.13
2022-11-16 13:53:00,,0834.3,5.00,0.00,22.1,21.7,00.0,30.9,24.0,07.0,0000.0,0001.30,0002.31,0001.14
2022-11-16 13:54:00,,0834.3,5.00,0.00,22.1,21.4,00.0,30.9,24.0,06.9,0000.0,0001.29,0002.50,0001.14
2022-11-16 13:55:00,,0834.3,5.00,0.00,22.1,21.1,00.0,31.0,23.9,06.9,0000.0,0001.30,0002.59,0001.14
2022-11-16 13:56:00,,0834.3,5.01,0.00,22.1,20.9,00.0,31.0,23.9,06.9,0000.0,0001.32,0002.65,0001.15
2022-11-16 13:57:00,,0834.3,5.00,0.00,22.0,20.7,00.0,31.0,23.9,06.9,0000.0,0001.34,0002.71,0001.15
2022-11-16 13:58:00,,0834.3,5.00,0.00,22.0,20.6,00.0,31.0,23.8,06.8,0000.0,0001.34,0002.69,0001.16
2022-11-16 13:59:00,,0834.3,5.00,0.00,22.0,20.5,00.0,31.0,23.8,06.8,0000.0,0001.36,0002.77,0001.17
